UKV735 LEMD-EGCC

Flight info

Callsign UKV735
Flight time 1h 56m
Altitude 38000
Route SIE N865 DELOG DCT RUSIB DCT NOZHU/N0447F370 DCT SHIRI DCT TOJAQ DCT EPACE DCT ACCOP DCT MOCQO/N0449F380 P16 AXCIS
Aircraft A320/M-SDE3FGIKRWXY/S

Departure

Time 2026-05-06 08:45
Airport Adolfo Suárez Madrid–Barajas Airport (LEMD)

Arrival

Time 2026-05-06 10:41
Airport Manchester Airport (EGCC)
Time Latitude Longitude Altitude Speed Heading
2026-05-06 08:15 40.49036 -3.56641 1976 ft 0 kts 269°
2026-05-06 08:34 40.49036 -3.56633 1976 ft 4 kts 269°
2026-05-06 08:34 40.49036 -3.56598 1974 ft 4 kts 269°
2026-05-06 08:35 40.49036 -3.56569 1974 ft 4 kts 261°
2026-05-06 08:35 40.49043 -3.56547 1975 ft 4 kts 205°
2026-05-06 08:35 40.49071 -3.56542 1975 ft 3 kts 179°
2026-05-06 08:35 40.49076 -3.56542 1975 ft 0 kts 179°
2026-05-06 08:40 40.49047 -3.56542 1973 ft 11 kts 180°
2026-05-06 08:40 40.48966 -3.56542 1970 ft 11 kts 179°
2026-05-06 08:40 40.48898 -3.56541 1970 ft 9 kts 185°
2026-05-06 08:40 40.48865 -3.56582 1973 ft 5 kts 253°
2026-05-06 08:41 40.48862 -3.56606 1973 ft 2 kts 263°
2026-05-06 08:41 40.48864 -3.56685 1974 ft 14 kts 272°
2026-05-06 08:41 40.48864 -3.56857 1976 ft 24 kts 271°
2026-05-06 08:41 40.48862 -3.57115 1982 ft 26 kts 268°
2026-05-06 08:42 40.48929 -3.57226 1983 ft 13 kts 17°
2026-05-06 08:42 40.49015 -3.57248 1985 ft 10 kts 325°
2026-05-06 08:42 40.49037 -3.57276 1984 ft 0 kts 314°
2026-05-06 08:42 40.49065 -3.57313 1984 ft 12 kts 315°
2026-05-06 08:43 40.49155 -3.57426 1985 ft 23 kts 320°
2026-05-06 08:43 40.49338 -3.57457 1983 ft 26 kts 355°
2026-05-06 08:43 40.49487 -3.57454 1984 ft 0 kts 359°
2026-05-06 08:44 40.49595 -3.57456 1985 ft 50 kts 359°
2026-05-06 08:44 40.50172 -3.57454 1990 ft 113 kts
2026-05-06 08:44 40.51129 -3.57456 2000 ft 160 kts
2026-05-06 08:44 40.52278 -3.57452 2461 ft 168 kts
2026-05-06 08:45 40.53439 -3.57437 3069 ft 167 kts
2026-05-06 08:45 40.54602 -3.57406 3704 ft 169 kts 360°
2026-05-06 08:45 40.55781 -3.57828 4062 ft 189 kts 325°
2026-05-06 08:45 40.56662 -3.59227 4346 ft 212 kts 298°
2026-05-06 08:46 40.57509 -3.60864 4941 ft 222 kts 314°
2026-05-06 08:46 40.58613 -3.62305 5703 ft 225 kts 319°
2026-05-06 08:46 40.59823 -3.63629 6513 ft 227 kts 321°
2026-05-06 08:46 40.61059 -3.64895 7285 ft 229 kts 322°
2026-05-06 08:47 40.62326 -3.66187 8024 ft 232 kts 322°
2026-05-06 08:47 40.63728 -3.67257 8766 ft 236 kts 340°
2026-05-06 08:47 40.65365 -3.67685 9342 ft 251 kts 358°
2026-05-06 08:47 40.67188 -3.67473 9675 ft 275 kts
2026-05-06 08:48 40.69141 -3.67168 10151 ft 291 kts
2026-05-06 08:48 40.71233 -3.66850 10411 ft 315 kts
2026-05-06 08:48 40.73491 -3.66519 10686 ft 335 kts
2026-05-06 08:48 40.75840 -3.66183 11293 ft 343 kts
2026-05-06 08:49 40.78197 -3.65846 12020 ft 347 kts
2026-05-06 08:49 40.80605 -3.65498 12775 ft 350 kts
2026-05-06 08:49 40.83034 -3.65141 13520 ft 353 kts
2026-05-06 08:49 40.85486 -3.64780 14232 ft 356 kts
2026-05-06 08:50 40.87958 -3.64418 14874 ft 359 kts
2026-05-06 08:50 40.90457 -3.64056 15517 ft 363 kts
2026-05-06 08:50 40.92976 -3.63695 16131 ft 366 kts
2026-05-06 08:50 40.95514 -3.63332 16787 ft 369 kts
2026-05-06 08:51 40.98076 -3.62965 17412 ft 372 kts
2026-05-06 08:51 41.00622 -3.62598 18026 ft 375 kts
2026-05-06 08:51 41.03227 -3.62222 18588 ft 378 kts
2026-05-06 08:51 41.05851 -3.61840 19083 ft 382 kts
2026-05-06 08:52 41.08505 -3.61450 19568 ft 385 kts
2026-05-06 08:52 41.11183 -3.61057 20045 ft 389 kts
2026-05-06 08:52 41.13884 -3.60660 20532 ft 392 kts
2026-05-06 08:52 41.16611 -3.60377 20994 ft 394 kts 359°
2026-05-06 08:53 41.19364 -3.60204 21455 ft 398 kts 357°
2026-05-06 08:53 41.22135 -3.60242 21919 ft 400 kts 354°
2026-05-06 08:53 41.24883 -3.60417 22373 ft 402 kts 352°
2026-05-06 08:53 41.27691 -3.60632 22833 ft 405 kts 352°
2026-05-06 08:54 41.30519 -3.60824 23324 ft 408 kts 353°
2026-05-06 08:54 41.33370 -3.60969 23772 ft 411 kts 353°
2026-05-06 08:54 41.36237 -3.61067 24161 ft 414 kts 354°
2026-05-06 08:54 41.39126 -3.61135 24543 ft 417 kts 354°
2026-05-06 08:55 41.42042 -3.61191 24823 ft 421 kts 354°
2026-05-06 08:55 41.45000 -3.61248 25044 ft 427 kts 354°
2026-05-06 08:55 41.47969 -3.61307 25468 ft 427 kts 354°
2026-05-06 08:55 41.50910 -3.61369 25860 ft 429 kts 355°
2026-05-06 08:56 41.53892 -3.61410 26285 ft 429 kts 355°
2026-05-06 08:56 41.56887 -3.61421 26663 ft 431 kts 355°
2026-05-06 08:56 41.59899 -3.61412 27013 ft 434 kts 356°
2026-05-06 08:56 41.62927 -3.61395 27344 ft 436 kts 355°
2026-05-06 08:57 41.65969 -3.61378 27665 ft 439 kts 355°
2026-05-06 08:57 41.69031 -3.61365 27978 ft 441 kts 355°
2026-05-06 08:57 41.72109 -3.61361 28293 ft 443 kts 355°
2026-05-06 08:57 41.75158 -3.61362 28638 ft 444 kts 355°
2026-05-06 08:58 41.78257 -3.61364 28952 ft 446 kts 355°
2026-05-06 08:58 41.81371 -3.61366 29241 ft 448 kts 355°
2026-05-06 08:58 41.84497 -3.61369 29524 ft 451 kts 355°
2026-05-06 08:58 41.87639 -3.61369 29815 ft 452 kts 355°
2026-05-06 08:59 41.90784 -3.61369 30200 ft 452 kts 355°
2026-05-06 08:59 41.93926 -3.61369 30570 ft 451 kts 355°
2026-05-06 08:59 41.97057 -3.61369 30960 ft 449 kts 355°
2026-05-06 08:59 42.00177 -3.61366 31316 ft 448 kts 355°
2026-05-06 09:00 42.03249 -3.61375 31642 ft 447 kts 354°
2026-05-06 09:00 42.06356 -3.61482 31967 ft 446 kts 353°
2026-05-06 09:00 42.09454 -3.61678 32296 ft 445 kts 352°
2026-05-06 09:00 42.12543 -3.61919 32616 ft 445 kts 352°
2026-05-06 09:01 42.15630 -3.62170 32961 ft 445 kts 352°
2026-05-06 09:01 42.18720 -3.62412 33264 ft 445 kts 352°
2026-05-06 09:01 42.21811 -3.62635 33587 ft 445 kts 353°
2026-05-06 09:01 42.24902 -3.62842 33911 ft 445 kts 353°
2026-05-06 09:02 42.27993 -3.63041 34198 ft 445 kts 353°
2026-05-06 09:02 42.31046 -3.63232 34458 ft 445 kts 353°
2026-05-06 09:02 42.34138 -3.63427 34709 ft 445 kts 353°
2026-05-06 09:02 42.37211 -3.63800 34992 ft 442 kts 348°
2026-05-06 09:03 42.40251 -3.64404 35256 ft 441 kts 348°
2026-05-06 09:03 42.43295 -3.65007 35492 ft 442 kts 348°
2026-05-06 09:03 42.46334 -3.65611 35716 ft 442 kts 348°
2026-05-06 09:03 42.49375 -3.66217 35929 ft 442 kts 348°
2026-05-06 09:04 42.52423 -3.66824 36139 ft 443 kts 348°
2026-05-06 09:04 42.55431 -3.67419 36338 ft 443 kts 348°
2026-05-06 09:04 42.58475 -3.68022 36612 ft 442 kts 348°
2026-05-06 09:04 42.61513 -3.68628 36848 ft 441 kts 348°
2026-05-06 09:05 42.64549 -3.69240 36999 ft 442 kts 348°
2026-05-06 09:05 42.70654 -3.70458 37028 ft 444 kts 349°
2026-05-06 09:06 42.76792 -3.71515 37069 ft 445 kts 350°
2026-05-06 09:06 42.79866 -3.72010 37283 ft 445 kts 350°
2026-05-06 09:06 42.82944 -3.72505 37482 ft 445 kts 350°
2026-05-06 09:06 42.85976 -3.73002 37659 ft 445 kts 349°
2026-05-06 09:07 42.89057 -3.73519 37827 ft 446 kts 349°
2026-05-06 09:07 42.92136 -3.74046 37997 ft 446 kts 349°
2026-05-06 09:07 42.95217 -3.74580 38028 ft 447 kts 349°
2026-05-06 09:08 43.01390 -3.75663 38031 ft 447 kts 349°
2026-05-06 09:08 43.07560 -3.76727 38038 ft 447 kts 349°
2026-05-06 09:09 43.13688 -3.77772 38042 ft 447 kts 349°
2026-05-06 09:09 43.19860 -3.78836 38051 ft 447 kts 350°
2026-05-06 09:10 43.26046 -3.79906 38059 ft 448 kts 349°
2026-05-06 09:10 43.32237 -3.80980 38068 ft 448 kts 349°
2026-05-06 09:11 43.38430 -3.82056 38078 ft 449 kts 350°
2026-05-06 09:11 43.44577 -3.83121 38077 ft 448 kts 350°
2026-05-06 09:12 43.50765 -3.84202 38076 ft 448 kts 350°
2026-05-06 09:12 43.56943 -3.85286 38087 ft 448 kts 349°
2026-05-06 09:13 43.63118 -3.86368 38063 ft 446 kts 350°
2026-05-06 09:13 43.69231 -3.87437 38057 ft 445 kts 350°
2026-05-06 09:14 43.75379 -3.88519 38053 ft 445 kts 350°
2026-05-06 09:14 43.81517 -3.89608 38059 ft 444 kts 350°
2026-05-06 09:15 43.87645 -3.90688 38049 ft 444 kts 350°
2026-05-06 09:15 43.93732 -3.91760 38048 ft 444 kts 350°
2026-05-06 09:16 43.99856 -3.92843 38049 ft 444 kts 350°
2026-05-06 09:16 44.05988 -3.93942 38034 ft 444 kts 350°
2026-05-06 09:17 44.12084 -3.95044 38029 ft 445 kts 350°
2026-05-06 09:17 44.18233 -3.96133 38030 ft 446 kts 351°
2026-05-06 09:18 44.24396 -3.97223 38021 ft 447 kts 351°
2026-05-06 09:18 44.30569 -3.98329 38020 ft 447 kts 351°
2026-05-06 09:19 44.36797 -3.98631 38031 ft 450 kts 360°
2026-05-06 09:19 44.43010 -3.98398 38024 ft 450 kts 360°
2026-05-06 09:20 44.49267 -3.98164 38018 ft 450 kts 360°
2026-05-06 09:20 44.55530 -3.97942 38026 ft 450 kts 360°
2026-05-06 09:21 44.61751 -3.97729 38028 ft 450 kts 360°
2026-05-06 09:21 44.68005 -3.97513 38029 ft 450 kts 360°
2026-05-06 09:22 44.74261 -3.97292 38029 ft 450 kts 360°
2026-05-06 09:22 44.80520 -3.97066 38029 ft 450 kts 360°
2026-05-06 09:23 44.86740 -3.96830 38030 ft 450 kts 360°
2026-05-06 09:23 44.92991 -3.96595 38038 ft 450 kts 360°
2026-05-06 09:24 44.99245 -3.96384 38038 ft 449 kts 360°
2026-05-06 09:24 45.05484 -3.96173 38031 ft 448 kts
2026-05-06 09:25 45.11721 -3.95934 38026 ft 448 kts
2026-05-06 09:25 45.17949 -3.95692 38036 ft 447 kts 360°
2026-05-06 09:26 45.24133 -3.95465 38031 ft 447 kts 360°
2026-05-06 09:26 45.30348 -3.95252 38031 ft 447 kts 360°
2026-05-06 09:27 45.36566 -3.95033 38038 ft 447 kts
2026-05-06 09:27 45.42776 -3.94801 38033 ft 446 kts 360°
2026-05-06 09:28 45.48937 -3.94571 38030 ft 446 kts
2026-05-06 09:28 45.55131 -3.94337 38033 ft 445 kts 359°
2026-05-06 09:29 45.61318 -3.94104 38027 ft 445 kts 360°
2026-05-06 09:29 45.67506 -3.93885 38019 ft 445 kts 359°
2026-05-06 09:30 45.73651 -3.93667 38026 ft 444 kts 360°
2026-05-06 09:30 45.79831 -3.93423 38025 ft 445 kts
2026-05-06 09:31 45.86017 -3.93186 38017 ft 445 kts
2026-05-06 09:31 45.92208 -3.92954 38025 ft 445 kts
2026-05-06 09:32 45.98359 -3.92729 38022 ft 445 kts 359°
2026-05-06 09:32 46.04558 -3.92496 38021 ft 445 kts
2026-05-06 09:33 46.10750 -3.92264 38020 ft 445 kts 359°
2026-05-06 09:33 46.16946 -3.92030 38018 ft 445 kts 360°
2026-05-06 09:34 46.23088 -3.91795 38013 ft 445 kts 359°
2026-05-06 09:34 46.29280 -3.91567 38022 ft 445 kts
2026-05-06 09:35 46.35472 -3.91338 38031 ft 445 kts
2026-05-06 09:35 46.41660 -3.91097 38031 ft 445 kts
2026-05-06 09:36 46.47841 -3.90858 38032 ft 444 kts 359°
2026-05-06 09:36 46.53977 -3.90621 38027 ft 444 kts 359°
2026-05-06 09:37 46.60149 -3.90383 38023 ft 444 kts 359°
2026-05-06 09:37 46.66321 -3.90154 38021 ft 444 kts
2026-05-06 09:38 46.72457 -3.89927 38019 ft 444 kts
2026-05-06 09:38 46.78629 -3.89690 38016 ft 444 kts
2026-05-06 09:39 46.84803 -3.89450 38021 ft 444 kts
2026-05-06 09:39 46.90987 -3.89206 38019 ft 444 kts
2026-05-06 09:40 46.97165 -3.88963 38018 ft 445 kts 360°
2026-05-06 09:40 47.06410 -3.88598 38020 ft 445 kts 359°
2026-05-06 09:41 47.12599 -3.88362 38021 ft 445 kts
2026-05-06 09:41 47.18784 -3.88119 38013 ft 445 kts 359°
2026-05-06 09:42 47.24975 -3.87880 37994 ft 445 kts
2026-05-06 09:42 47.31122 -3.87640 38010 ft 445 kts
2026-05-06 09:43 47.37317 -3.87391 38013 ft 445 kts
2026-05-06 09:43 47.43511 -3.87143 38009 ft 445 kts 359°
2026-05-06 09:44 47.49709 -3.86906 38006 ft 445 kts 359°
2026-05-06 09:44 47.55899 -3.86669 38004 ft 445 kts 359°
2026-05-06 09:45 47.62046 -3.86429 37996 ft 445 kts
2026-05-06 09:45 47.68234 -3.86176 37995 ft 445 kts
2026-05-06 09:46 47.74430 -3.85916 37991 ft 445 kts
2026-05-06 09:46 47.80632 -3.85670 37992 ft 446 kts
2026-05-06 09:47 47.86794 -3.85427 37979 ft 446 kts
2026-05-06 09:47 47.92990 -3.85168 37987 ft 446 kts
2026-05-06 09:48 47.99197 -3.84919 37987 ft 446 kts
2026-05-06 09:48 48.05402 -3.84670 37983 ft 446 kts
2026-05-06 09:49 48.11612 -3.84414 37991 ft 447 kts
2026-05-06 09:49 48.17783 -3.84161 37999 ft 447 kts
2026-05-06 09:50 48.24001 -3.83908 37989 ft 447 kts
2026-05-06 09:50 48.30223 -3.83657 37992 ft 447 kts
2026-05-06 09:51 48.36440 -3.83403 37987 ft 447 kts
2026-05-06 09:51 48.42659 -3.83159 37987 ft 447 kts
2026-05-06 09:52 48.48837 -3.82906 37982 ft 447 kts
2026-05-06 09:52 48.55067 -3.82650 37980 ft 448 kts
2026-05-06 09:53 48.61294 -3.82388 37986 ft 448 kts
2026-05-06 09:53 48.67541 -3.82120 37984 ft 449 kts
2026-05-06 09:54 48.73742 -3.81859 37984 ft 449 kts
2026-05-06 09:54 48.79994 -3.81605 37990 ft 449 kts
2026-05-06 09:55 48.86245 -3.81345 37997 ft 449 kts
2026-05-06 09:55 48.92496 -3.81082 38003 ft 449 kts
2026-05-06 09:56 48.98709 -3.80825 38009 ft 450 kts
2026-05-06 09:56 49.04963 -3.80482 38020 ft 450 kts
2026-05-06 09:57 49.11217 -3.80063 38015 ft 450 kts
2026-05-06 09:57 49.17477 -3.79656 38015 ft 450 kts
2026-05-06 09:58 49.23732 -3.79282 38018 ft 450 kts
2026-05-06 09:58 49.29991 -3.78914 38021 ft 450 kts
2026-05-06 09:59 49.36202 -3.78536 38019 ft 450 kts
2026-05-06 09:59 49.42453 -3.78142 38018 ft 450 kts
2026-05-06 10:00 49.48705 -3.77747 38023 ft 450 kts
2026-05-06 10:00 49.54956 -3.77365 38021 ft 450 kts
2026-05-06 10:01 49.61214 -3.76979 38016 ft 450 kts
2026-05-06 10:01 49.67468 -3.76587 38015 ft 450 kts
2026-05-06 10:02 49.73721 -3.76096 38023 ft 450 kts
2026-05-06 10:02 49.79966 -3.75318 38021 ft 450 kts
2026-05-06 10:03 49.86210 -3.74498 38019 ft 450 kts
2026-05-06 10:03 49.92460 -3.73737 38024 ft 451 kts
2026-05-06 10:04 49.98715 -3.73001 38024 ft 451 kts
2026-05-06 10:04 50.04971 -3.72263 38027 ft 451 kts
2026-05-06 10:05 50.11233 -3.71515 38029 ft 451 kts
2026-05-06 10:05 50.17487 -3.70768 38035 ft 451 kts
2026-05-06 10:06 50.23745 -3.70023 38029 ft 451 kts
2026-05-06 10:06 50.30002 -3.69271 38027 ft 451 kts
2026-05-06 10:07 50.36265 -3.68512 38036 ft 451 kts
2026-05-06 10:07 50.42521 -3.67739 38029 ft 451 kts
2026-05-06 10:08 50.48767 -3.66654 38028 ft 452 kts
2026-05-06 10:08 50.55002 -3.65356 38023 ft 452 kts
2026-05-06 10:09 50.61240 -3.64093 38029 ft 452 kts
2026-05-06 10:09 50.67486 -3.62898 38042 ft 452 kts
2026-05-06 10:10 50.73735 -3.61716 38042 ft 452 kts
2026-05-06 10:10 50.79946 -3.60533 38042 ft 453 kts
2026-05-06 10:11 50.86200 -3.59331 38047 ft 453 kts
2026-05-06 10:11 50.92455 -3.58125 38043 ft 453 kts
2026-05-06 10:12 50.98710 -3.56902 38041 ft 453 kts
2026-05-06 10:12 51.04963 -3.55679 38043 ft 452 kts
2026-05-06 10:13 51.11207 -3.54471 38034 ft 452 kts
2026-05-06 10:13 51.17450 -3.53262 38038 ft 452 kts
2026-05-06 10:14 51.23651 -3.52048 38030 ft 452 kts
2026-05-06 10:14 51.29893 -3.50823 38048 ft 452 kts
2026-05-06 10:15 51.36137 -3.49594 38036 ft 452 kts
2026-05-06 10:15 51.42386 -3.48363 38035 ft 452 kts
2026-05-06 10:16 51.48639 -3.47122 38038 ft 453 kts
2026-05-06 10:16 51.53837 -3.46092 38053 ft 453 kts
2026-05-06 10:17 51.60092 -3.44851 38047 ft 453 kts
2026-05-06 10:17 51.66347 -3.43592 38044 ft 453 kts
2026-05-06 10:18 51.72605 -3.42337 38047 ft 453 kts
2026-05-06 10:18 51.78861 -3.41085 38052 ft 453 kts
2026-05-06 10:19 51.81997 -3.40461 37826 ft 453 kts
2026-05-06 10:19 51.85121 -3.39835 37558 ft 453 kts
2026-05-06 10:19 51.88253 -3.39203 37284 ft 453 kts
2026-05-06 10:19 51.91380 -3.38570 37007 ft 453 kts
2026-05-06 10:20 51.94511 -3.38002 36752 ft 452 kts
2026-05-06 10:20 51.97644 -3.37634 36488 ft 451 kts
2026-05-06 10:20 52.00777 -3.37420 36246 ft 450 kts 359°
2026-05-06 10:20 52.03910 -3.37288 35992 ft 450 kts 359°
2026-05-06 10:21 52.07038 -3.37170 35610 ft 450 kts 359°
2026-05-06 10:21 52.10191 -3.37026 34714 ft 455 kts 359°
2026-05-06 10:21 52.13363 -3.36839 33862 ft 458 kts 359°
2026-05-06 10:21 52.16524 -3.36619 32810 ft 463 kts 360°
2026-05-06 10:22 52.19789 -3.36369 31793 ft 465 kts
2026-05-06 10:22 52.23032 -3.36112 30786 ft 468 kts
2026-05-06 10:22 52.26258 -3.35860 29674 ft 473 kts
2026-05-06 10:22 52.29515 -3.35609 29040 ft 464 kts
2026-05-06 10:23 52.32722 -3.35362 28315 ft 458 kts
2026-05-06 10:23 52.35883 -3.35125 27627 ft 452 kts 360°
2026-05-06 10:23 52.39005 -3.34896 26943 ft 446 kts 360°
2026-05-06 10:23 52.42083 -3.34673 26284 ft 440 kts 360°
2026-05-06 10:24 52.45128 -3.34451 25625 ft 436 kts
2026-05-06 10:24 52.48145 -3.34230 24988 ft 432 kts 360°
2026-05-06 10:24 52.51138 -3.34010 24327 ft 429 kts 360°
2026-05-06 10:24 52.54104 -3.33792 23685 ft 425 kts 360°
2026-05-06 10:25 52.57044 -3.33579 22994 ft 421 kts
2026-05-06 10:25 52.59944 -3.33367 22426 ft 414 kts
2026-05-06 10:25 52.62794 -3.32890 21861 ft 410 kts
2026-05-06 10:25 52.65532 -3.31651 21335 ft 407 kts 17°
2026-05-06 10:26 52.68176 -3.30070 20812 ft 402 kts 18°
2026-05-06 10:26 52.70784 -3.28506 20314 ft 396 kts 18°
2026-05-06 10:26 52.73396 -3.26941 19774 ft 393 kts 18°
2026-05-06 10:26 52.75954 -3.25410 19214 ft 389 kts 18°
2026-05-06 10:27 52.78493 -3.23890 18692 ft 387 kts 18°
2026-05-06 10:27 52.81014 -3.22379 18151 ft 384 kts 18°
2026-05-06 10:27 52.83513 -3.20880 17596 ft 381 kts 18°
2026-05-06 10:27 52.85954 -3.19411 17067 ft 377 kts 18°
2026-05-06 10:28 52.88424 -3.18018 16552 ft 372 kts 13°
2026-05-06 10:28 52.90951 -3.17273 16056 ft 366 kts
2026-05-06 10:28 52.93483 -3.17066 15558 ft 363 kts
2026-05-06 10:28 52.95995 -3.16882 15074 ft 360 kts
2026-05-06 10:29 52.98485 -3.16693 14610 ft 357 kts
2026-05-06 10:29 53.00958 -3.16498 14153 ft 354 kts
2026-05-06 10:29 53.03411 -3.16301 13665 ft 351 kts
2026-05-06 10:29 53.05843 -3.16104 13179 ft 349 kts
2026-05-06 10:30 53.08266 -3.15907 13054 ft 348 kts
2026-05-06 10:30 53.10684 -3.15711 12837 ft 346 kts
2026-05-06 10:30 53.13081 -3.15519 12271 ft 343 kts
2026-05-06 10:30 53.15429 -3.15332 11747 ft 341 kts
2026-05-06 10:31 53.17787 -3.15145 11228 ft 338 kts
2026-05-06 10:31 53.20128 -3.14963 10715 ft 335 kts
2026-05-06 10:31 53.22448 -3.14787 10212 ft 333 kts
2026-05-06 10:31 53.24737 -3.14533 9899 ft 325 kts
2026-05-06 10:32 53.26802 -3.13215 9773 ft 315 kts 32°
2026-05-06 10:32 53.28302 -3.10696 9605 ft 299 kts 56°
2026-05-06 10:32 53.28994 -3.07508 9254 ft 293 kts 83°
2026-05-06 10:32 53.28782 -3.04157 8955 ft 291 kts 106°
2026-05-06 10:33 53.28107 -3.00977 8587 ft 289 kts 109°
2026-05-06 10:33 53.27379 -2.97853 8209 ft 288 kts 110°
2026-05-06 10:33 53.26648 -2.94754 7879 ft 285 kts 110°
2026-05-06 10:33 53.25924 -2.91696 7564 ft 281 kts 110°
2026-05-06 10:34 53.25208 -2.88692 7060 ft 282 kts 110°
2026-05-06 10:34 53.24465 -2.85617 6287 ft 283 kts 110°
2026-05-06 10:34 53.23749 -2.82715 6161 ft 259 kts 110°
2026-05-06 10:34 53.23085 -2.80048 5911 ft 242 kts 110°
2026-05-06 10:35 53.22445 -2.77492 5453 ft 236 kts 110°
2026-05-06 10:35 53.21824 -2.74983 4989 ft 232 kts 110°
2026-05-06 10:35 53.21338 -2.72462 4475 ft 226 kts 93°
2026-05-06 10:35 53.21320 -2.69858 4078 ft 223 kts 86°
2026-05-06 10:36 53.21398 -2.67283 3749 ft 222 kts 85°
2026-05-06 10:36 53.21497 -2.64722 3533 ft 220 kts 85°
2026-05-06 10:36 53.21605 -2.62172 3494 ft 220 kts 85°
2026-05-06 10:36 53.21715 -2.59618 3491 ft 220 kts 85°
2026-05-06 10:37 53.21822 -2.57107 3490 ft 221 kts 85°
2026-05-06 10:37 53.22041 -2.54581 3497 ft 220 kts 69°
2026-05-06 10:37 53.22800 -2.52407 3433 ft 218 kts 52°
2026-05-06 10:37 53.23752 -2.50467 3212 ft 214 kts 51°
2026-05-06 10:38 53.24676 -2.48595 2934 ft 204 kts 51°
2026-05-06 10:38 53.25562 -2.46782 2658 ft 198 kts 51°
2026-05-06 10:38 53.26421 -2.45019 2399 ft 193 kts 52°
2026-05-06 10:38 53.27252 -2.43313 2139 ft 185 kts 52°
2026-05-06 10:39 53.28039 -2.41696 1880 ft 174 kts 51°
2026-05-06 10:39 53.28774 -2.40184 1633 ft 161 kts 51°
2026-05-06 10:39 53.29433 -2.38828 1445 ft 142 kts 52°
2026-05-06 10:39 53.30036 -2.37588 1222 ft 133 kts 51°
2026-05-06 10:40 53.30618 -2.36388 1033 ft 134 kts 51°
2026-05-06 10:40 53.31193 -2.35203 853 ft 130 kts 53°
2026-05-06 10:40 53.31757 -2.34040 679 ft 130 kts 52°
2026-05-06 10:40 53.32335 -2.32848 514 ft 129 kts 52°
2026-05-06 10:41 53.32901 -2.31678 335 ft 130 kts 52°
2026-05-06 10:41 53.33485 -2.30465 230 ft 128 kts 49°
2026-05-06 10:41 53.33963 -2.29486 227 ft 95 kts 51°
2026-05-06 10:41 53.34285 -2.28802 226 ft 42 kts 53°
2026-05-06 10:42 53.34484 -2.28552 229 ft 33 kts 21°
2026-05-06 10:42 53.34658 -2.28439 230 ft 19 kts 19°
2026-05-06 10:42 53.34761 -2.28306 230 ft 19 kts 50°
2026-05-06 10:42 53.34843 -2.28132 230 ft 20 kts 53°
2026-05-06 10:43 53.34920 -2.27975 229 ft 13 kts 46°
2026-05-06 10:43 53.34973 -2.27987 233 ft 7 kts 325°
2026-05-06 10:43 53.35020 -2.28051 233 ft 15 kts 320°
2026-05-06 10:44 53.35260 -2.28190 233 ft 14 kts
2026-05-06 10:44 53.35378 -2.28171 238 ft 21 kts
2026-05-06 10:44 53.35542 -2.28078 236 ft 25 kts 44°
2026-05-06 10:44 53.35636 -2.27904 241 ft 18 kts 25°
2026-05-06 10:45 53.35751 -2.27873 247 ft 16 kts
2026-05-06 10:45 53.35853 -2.27859 253 ft 14 kts
2026-05-06 10:45 53.35947 -2.27851 255 ft 13 kts 347°
2026-05-06 10:45 53.36020 -2.27943 255 ft 13 kts 318°
2026-05-06 10:46 53.36080 -2.28034 255 ft 11 kts 319°
2026-05-06 10:46 53.36146 -2.28133 255 ft 14 kts 315°
2026-05-06 10:46 53.36219 -2.28266 255 ft 17 kts 311°
2026-05-06 10:46 53.36311 -2.28419 255 ft 15 kts 317°
2026-05-06 10:47 53.36389 -2.28483 255 ft 12 kts 350°
2026-05-06 10:47 53.36445 -2.28531 255 ft 3 kts 315°
2026-05-06 10:47 53.36465 -2.28565 255 ft 6 kts 315°
2026-05-06 10:47 53.36524 -2.28667 255 ft 17 kts 314°
2026-05-06 10:48 53.36596 -2.28828 255 ft 18 kts 301°
2026-05-06 10:48 53.36680 -2.28974 255 ft 18 kts 314°
2026-05-06 10:48 53.36745 -2.29072 255 ft 10 kts 353°
2026-05-06 10:48 53.36804 -2.29055 255 ft 8 kts 19°
2026-05-06 10:49 53.36853 -2.29010 255 ft 10 kts 40°
2026-05-06 10:49 53.36923 -2.28897 255 ft 17 kts 44°
2026-05-06 10:49 53.36976 -2.28812 255 ft 2 kts 43°
2026-05-06 10:49 53.36983 -2.28763 255 ft 7 kts 118°
2026-05-06 10:50 53.36966 -2.28727 255 ft 3 kts 132°
2026-05-06 10:50 53.36951 -2.28700 255 ft 0 kts 133°
2026-05-06 10:50 53.36950 -2.28699 255 ft 0 kts 141°
2026-05-06 10:50 53.36948 -2.28696 255 ft 0 kts 137°